パンスターズ彗星

P/2018 A4 ( PanSTARRS )

English version
Home page
Updated on February 13, 2018

---------------------------------------------------------------------

・ プロフィール

発見日 2018年1月12日
発見光度 20.6等
発見者 Pan-STARRS 1 telescope (Haleakala)

・ 軌道要素

T 2018 May 21.30005 TT                                  MPCW
q   2.3937385            (2000.0)            P               Q
n   0.04103888     Peri.  355.95611     -0.07308353     -0.99586881
a   8.3241344      Node    98.22905     +0.91654919     -0.08836873
e   0.7124339      Incl.    3.12133     +0.39318747     +0.02088744
P  24.02
From 41 observations 2018 Jan. 12-16.

・ 光度変化

        m1 = 13.5 + 5 logΔ + 10.0 log r

---------------------------------------------------------------------

軌道要素はM.P.E.C. 2018-B155に掲載されたものです。
光度グラフはComet for Windowsで作成したものです。

---------------------------------------------------------------------

Copyright(C) Seiichi Yoshida (comet@aerith.net). All rights reserved.